Hourly Data Report for October 05, 2013

All times are specified in Local Standard Time (LST). Add 1 hour to adjust for Daylight Saving Time where and when it is observed.

CLYDE RIVER A
NUNAVUT

70°29'09.000" N
68°31'01.000" W
26.50 m
2400804
71090
YCY

Download Data

Hourly Data (October 2013)
Hourly Data Report for October 5, 2013
Temp Definition
°C
Dew Point Temp Definition
°C
Rel Hum Definition
%
Wind Dir Definition
10's deg

Wind Spd Definition
km/h
Visibility Definition
km
Stn Press Definition
kPa
Hmdx Definition


Wind Chill Definition


Weather Definition


TIME
00:00 Legend Double Dagger -5.5 -6.6 92 30 18 4.0 101.32   -12 LegendNANA
01:00 Legend Double Dagger -5.2 -6.2 93 31 17 2.4 101.34   -11 LegendNANA
02:00 Legend Double Dagger -5.4 -6.9 89 29 21 16.1 101.35   -12 LegendNANA
03:00 Legend Double Dagger -5.4 -7.8 83 31 17 16.1 101.35   -11 LegendNANA
04:00 Legend Double Dagger -5.1 -8.9 75 30 24 16.1 101.34   -12 LegendNANA
05:00 Legend Double Dagger -6.0 -9.6 76 29 24 16.1 101.36   -13 LegendNANA
06:00 Legend Double Dagger -6.9 -10.0 79 28 26 16.1 101.35   -15 LegendNANA
07:00 Legend Double Dagger -6.0 -8.9 80 28 24 16.1 101.35   -13 LegendNANA
08:00 Legend Double Dagger -6.5 -10.0 76 29 28 16.1 101.33   -15 LegendNANA
09:00 Legend Double Dagger -8.6 -11.6 79 30 24 16.1 101.32   -17 LegendNANA
10:00 Legend Double Dagger -6.2 -9.4 78 29 18 16.1 101.31   -13 LegendNANA
11:00 Legend Double Dagger -4.9 -8.8 74 30 28 16.1 101.29   -13 LegendNANA
12:00 Legend Double Dagger -6.4 -10.3 74 28 18 16.1 101.30   -13 LegendNANA
13:00 Legend Double Dagger -6.2 -9.9 75 28 21 16.1 101.33   -13 LegendNANA
14:00 Legend Double Dagger -6.2 -9.3 79 29 18 16.1 101.34   -13 LegendNANA
15:00 Legend Double Dagger -5.5 -9.3 75 29 15 16.1 101.35   -11 LegendNANA
16:00 Legend Double Dagger -8.2 -12.1 74 24 13 16.1 101.38   -14 LegendNANA
17:00 Legend Double Dagger -8.6 -13.1 70 25 11 16.1 101.38   -14 LegendNANA
18:00 Legend Double Dagger -8.1 -13.4 66 26 11 16.1 101.38   -13 LegendNANA
19:00 Legend Double Dagger -10.8 -15.0 71 28 8 16.1 101.39   -15 LegendNANA
20:00 Legend Double Dagger -10.1 -14.9 68 28 13 16.1 101.39   -16 LegendNANA
21:00 Legend Double Dagger -11.5 -15.8 71 28 11 16.1 101.37   -17 LegendNANA
22:00 Legend Double Dagger -9.5 -15.2 64 27 13 16.1 101.37   -16 LegendNANA
23:00 Legend Double Dagger -10.2 -15.7 64 24 13 16.1 101.38   -16 LegendNANA

Notes on Data Quality.

Legend

  • E = Estimated
  • M = Missing
  • NA = Not Available
  • ‡ = Partner data that is not subject to review by the National Climate Archives
Date modified: